2022-162B

Last updated on Mon Dec 12 2022 00:02:09 GMT+0000 (Coordinated Universal Time)

1 54380U 22162B 22345.68941756 .08877519 80912-5 18379-3 0 9996 2 54380 41.4618 212.0662 0014777 219.1379 204.8125 16.45663364 1954

Satellite not in orbit